SCP
0 0 0 0 0 0 0 0 0 0 0 0 0 0 0 0 0 0 0 0 0 0 0 0 0 0 0 0 0 0 0 0 0 0 0 0 0 0 0 0 0 0 0
0 0 0 0 0 0 0 0 0 0 0 0 0 0 0 0 0 0 0 0 0 0 0 0 0 0 0 0 0 0 0 0 0 0 0 0 0 0 0 0 0 0 0
0 0 0 0 0 0 0 0 0 0 0 0 0 0 0 0 0 0 0 0 0 0 0 0 0 0 0 0 0 0 0 0 0 0 0 0 0 0 0 0 0 0 0
0 0 0 0 0 0 0 0 0 0 0 0 0 0 0 0 0 0 0 0 0 0 0 0 0 0 0 0 0 0 0 0 0 0 0 0 0 0 0 0 0 0 0
0 0 0 0 0 0 0 0 0 0 0 0 0 0 0 0 0 0 0 0 0 0 0 0 0 0 0 0 0 0 0 0 0 0 0 0 0 0 0 0 0 0 0
0 0 0 0 0 0 0 0 0 0 0 0 0 0 0 0 0 0 0 0 0 0 0 0 0 0 0 0 0 0 0 0 0 0 0 0 0 0 0 0 0 0 0
0 0 0 0 0 0 0 0 0 0 0 0 0 0 0 0 0 0 0 0 0 0 0 0 0 0 0 0 0 0 0 0 0 0 0 0 0 0 0 0 0 0 0
0 0 0 0 0 0 0 0 0 0 0 0 0 0 0 0 0 0 0 0 0 0 0 0 0 0 0 0 0 0 0 0 0 0 0 0 0 0 0 0 0 0 0
0 0 0 0 1 1 1 1 0 0 0 0 0 0 0 0 0 0 0 0 0 0 0 0 0 0 0 0 0 0 0 0 0 0 0 0 0 0 0 0 0 0 0
0 0 0 0 1 1 1 1 1 1 0 0 0 0 0 0 0 0 0 0 0 0 0 0 0 0 0 0 0 0 0 0 0 0 0 0 0 0 0 0 0 0 0
0 0 0 0 0 0 0 1 1 0 0 0 0 0 0 0 0 0 0 0 0 0 0 0 0 0 0 0 0 0 0 0 0 0 0 0 0 0 0 0 0 0 0
0 0 0 0 0 0 0 0 0 0 0 0 0 0 0 0 0 0 0 0 0 0 0 0 0 0 0 0 0 0 0 0 0 0 0 0 0 0 0 0 0 0 0
0 0 0 0 0 0 0 0 0 0 0 0 0 0 0 0 0 0 0 0 0 0 0 0 0 0 0 0 0 0 0 0 0 0 0 0 0 0 0 0 0 0 0
0 0 0 0 0 0 0 0 0 0 0 0 0 0 0 0 0 0 0 0 0 0 0 0 0 0 0 0 0 0 0 0 0 0 0 0 0 0 0 0 0 0 0
0 0 0 0 0 0 0 0 0 0 0 0 0 0 0 0 0 0 0 0 0 0 0 0 0 0 0 0 0 0 0 0 0 0 0 0 0 0 0 0 0 0 0
0 0 0 0 0 0 0 0 0 0 0 0 0 0 0 0 0 0 0 0 0 0 0 0 0 0 0 0 0 0 0 0 0 0 0 0 0 0 0 0 0 0 0
0 0 0 0 0 0 0 0 0 0 0 0 0 0 0 0 0 0 0 0 0 0 0 0 0 0 0 0 0 0 0 0 0 0 0 0 0 0 0 0 0 0 0
0 0 0 0 0 0 0 0 0 0 0 0 0 0 0 0 0 0 0 0 0 0 0 0 0 0 0 0 0 0 0 0 0 0 0 0 0 0 0 0 0 0 0
0 0 0 0 0 0 0 0 0 0 0 0 0 0 0 0 0 0 0 0 0 0 0 0 0 0 0 0 0 0 0 0 0 0 0 0 0 0 0 0 0 0 0
0 0 0 0 0 0 0 0 0 0 0 0 0 0 0 0 0 0 0 0 0 0 0 0 0 0 0 0 0 0 0 0 0 0 0 0 0 0 0 0 0 0 0
0 0 0 0 0 0 0 0 0 0 0 0 0 0 0 0 0 0 0 0 0 0 0 0 0 0 0 0 0 0 0 0 0 0 0 0 0 0 0 0 0 0 0
0 0 0 0 0 0 0 0 0 0 0 0 0 0 0 0 0 0 0 0 0 0 0 0 0 0 0 0 0 0 0 0 0 0 0 0 0 0 0 0 0 0 0
0 0 0 0 0 0 0 0 0 0 0 0 0 0 0 0 0 0 0 0 0 0 0 0 0 0 0 0 0 0 0 0 0 0 0 0 0 0 0 0 0 0 0
0 0 0 0 0 0 0 0 0 0 0 0 0 0 0 0 0 0 0 0 0 0 0 0 0 0 0 0 0 0 0 0 0 0 0 0 0 0 0 0 0 0 0
0 0 0 0 0 0 0 0 0 0 0 0 0 0 0 0 0 0 0 0 0 0 0 0 0 0 0 0 0 0 0 0 0 0 0 0 0 0 0 0 0 0 0
0 0 0 0 0 0 0 0 0 0 0 0 0 0 0 0 0 0 0 0 0 0 0 0 0 0 0 0 0 0 0 0 0 0 -0 0 0 0 0 0 0 0 0
Wind_Speed
8 8 8 8 8 8 8 8 8 8 8 9 9 9 9 9 8 7 7 7 7 6 5 5 5 3 3 3 3 3 3 4 4 3 1 2 1 3 2 3 2 2 3
8 8 7 7 7 7 7 8 8 8 8 9 9 9 9 9 8 8 8 7 7 7 6 5 5 4 4 3 3 3 2 3 4 4 1 1 1 1 2 3 2 2 1
8 8 8 8 7 7 7 7 7 7 8 8 9 9 8 8 8 8 7 6 6 5 5 5 5 5 4 2 2 2 2 2 3 3 2 0 1 1 2 2 1 2 3
8 8 8 8 8 8 7 7 7 7 8 8 7 7 7 8 8 7 7 6 5 4 3 3 3 3 3 3 2 1 1 1 1 2 2 1 1 1 2 3 2 2 3
8 8 8 8 7 7 7 7 7 7 8 8 8 7 7 6 7 7 7 7 6 5 5 4 4 6 7 4 2 1 0 1 1 1 1 1 2 3 3 4 4 4 2
7 7 7 7 8 7 7 7 7 7 7 8 8 8 7 5 7 8 7 7 6 6 6 6 7 8 11 12 13 12 9 4 3 2 2 2 3 4 4 5 5 5 4
7 7 7 7 8 8 8 7 7 7 7 7 7 7 7 7 10 9 7 6 6 6 6 5 5 7 7 8 11 12 14 14 10 5 5 5 4 5 6 5 5 6 6
7 7 7 8 8 8 7 7 7 7 7 7 7 7 7 9 11 11 10 7 7 7 6 6 6 6 6 6 8 9 10 10 9 7 7 7 7 6 6 5 5 5 5
7 7 7 7 8 8 8 8 7 7 7 7 7 8 9 9 10 11 10 8 9 10 8 8 8 9 9 6 8 9 9 8 11 12 10 7 6 6 7 5 6 6 6
6 6 6 6 8 9 9 9 8 7 8 8 9 8 9 9 9 9 8 8 10 9 9 10 13 11 9 7 7 7 7 6 5 5 4 3 2 3 2 5 6 7 7
7 7 7 7 8 9 9 8 9 9 9 9 11 10 10 10 10 9 7 6 9 9 8 8 9 12 12 10 8 7 6 3 2 2 2 2 2 3 4 5 6 6 7
8 8 8 7 7 8 9 9 9 10 11 11 11 11 9 9 10 11 12 11 9 10 9 8 9 12 11 10 8 6 2 2 1 2 2 3 4 5 5 6 6 6 6
9 9 8 9 7 8 8 9 9 8 8 9 9 9 8 8 10 14 15 15 13 10 10 13 11 10 9 8 7 2 1 1 3 3 4 4 4 4 5 4 4 4 6
10 10 9 9 9 9 7 6 7 7 8 8 9 9 9 8 7 7 9 10 13 12 10 11 9 6 5 5 4 2 3 5 5 4 4 4 4 4 5 6 6 7 7
11 11 11 10 11 10 10 9 8 8 6 8 8 8 9 9 8 8 7 7 6 7 7 6 5 4 4 4 4 4 3 3 4 4 4 5 5 5 6 6 6 7 7
11 10 9 9 9 10 11 13 19 15 18 16 13 11 11 12 13 13 13 12 10 5 3 5 5 4 4 4 3 3 4 4 4 4 4 5 6 6 6 6 7 7 8
11 10 9 9 10 10 10 11 12 14 18 18 16 15 15 14 14 13 12 10 6 2 4 5 4 4 3 3 3 4 4 4 4 4 5 6 6 7 7 7 7 7 8
12 12 11 9 9 9 9 9 10 11 11 10 12 13 13 13 12 10 8 7 5 3 4 5 4 4 3 3 4 4 4 4 4 5 5 6 6 7 7 7 7 8 9
11 9 9 9 9 9 9 9 10 11 11 10 10 9 10 10 9 6 4 3 5 5 5 4 4 4 4 4 4 4 4 4 5 6 5 6 7 7 7 8 8 8 9
11 13 11 9 9 9 9 9 9 10 10 10 9 9 9 8 7 6 4 4 4 5 4 4 4 4 4 3 3 3 4 4 5 5 6 6 7 7 8 9 9 9 9
11 12 13 10 9 9 9 9 9 9 9 9 8 6 3 6 6 6 5 5 4 4 4 4 3 3 3 2 3 4 5 5 5 6 7 7 7 7 7 8 9 9 9
9 9 9 9 9 9 9 9 8 9 9 9 9 8 3 3 5 5 5 5 5 4 3 3 3 4 4 4 4 5 5 6 6 7 7 7 7 8 8 8 9 9 9
9 10 10 10 9 9 8 8 8 8 8 8 7 7 6 5 5 5 5 4 4 3 3 3 2 3 3 3 3 4 5 6 7 7 8 8 8 8 8 9 10 11 10
9 10 10 10 9 8 8 8 8 8 8 7 7 6 5 5 5 5 4 4 3 3 3 2 2 3 3 3 3 3 6 7 8 8 10 9 9 8 9 9 10 11 11
9 9 9 8 8 8 8 8 7 7 7 6 6 5 5 5 5 4 4 3 3 3 2 1 1 1 2 3 4 5 6 4 5 9 10 9 9 9 10 11 10 11 11
9 9 8 7 7 7 7 7 7 7 6 6 5 5 5 4 4 4 4 3 3 2 2 1 1 1 2 1 4 4 1 2 4 6 9 9 10 9 10 10 13 11 12
Wind_Direction
181 183 184 188 192 198 200 200 196 194 191 191 192 188 187 186 184 191 200 188 197 196 196 195 202 230 227 226 227 239 245 258 263 255 179 109 58 335 16 328 300 262 114
180 180 183 187 189 195 198 195 193 190 190 191 189 186 187 187 186 189 196 191 194 195 195 192 197 197 206 242 243 244 251 273 270 273 261 162 118 344 341 302 321 327 8
177 181 184 187 188 192 192 184 184 183 185 186 183 183 183 183 185 187 188 188 188 189 192 193 199 200 198 205 240 247 245 238 266 266 247 18 270 9 305 291 323 332 309
176 179 185 186 186 185 182 178 179 178 176 174 174 175 177 180 181 180 179 173 164 161 166 166 170 176 177 188 196 224 259 257 230 254 254 227 273 15 314 318 314 329 322
177 181 182 180 178 176 173 173 171 170 169 166 165 164 164 171 175 170 164 159 154 150 136 121 104 87 68 56 49 82 177 263 252 252 275 308 20 5 349 331 329 320 322
179 179 172 169 166 165 165 163 158 157 156 153 155 154 156 155 125 133 150 146 144 141 131 121 111 101 90 78 67 57 44 32 14 356 16 34 30 12 354 332 336 327 324
172 168 164 163 160 159 154 150 150 148 144 141 143 141 135 118 115 122 129 140 136 127 125 126 118 107 110 107 95 86 69 56 45 33 48 36 33 20 353 341 352 336 329
167 164 161 158 153 148 142 139 139 135 132 130 128 126 121 111 110 113 115 120 110 104 103 109 110 105 97 103 101 88 74 59 51 54 58 47 40 17 354 335 322 302 277
158 158 159 157 151 143 137 135 132 127 124 121 117 116 114 108 107 116 121 117 107 100 94 89 96 95 76 82 101 99 93 89 83 82 79 81 68 39 1 339 341 323 323
150 148 145 145 144 139 134 131 125 119 116 113 108 105 107 105 99 105 116 119 113 107 95 83 74 80 70 60 92 97 93 83 80 97 104 128 77 71 23 355 343 329 326
134 129 126 126 128 127 124 123 122 117 112 108 102 94 92 93 92 87 91 117 119 114 105 96 86 78 71 61 65 77 75 65 80 70 68 53 33 15 8 6 355 333 328
124 120 117 116 118 120 120 119 119 120 115 108 102 95 87 82 81 81 79 80 95 105 102 99 96 89 79 71 72 73 42 292 40 39 27 21 11 9 4 350 340 325 312
117 113 111 109 105 111 116 119 118 119 117 115 112 106 100 94 87 83 83 83 85 94 96 100 104 107 106 94 90 76 301 16 30 24 21 15 5 358 327 316 309 298 280
115 110 106 105 99 91 90 98 109 117 121 121 117 113 110 105 104 105 104 101 103 105 107 111 112 105 107 109 127 104 57 38 15 18 8 357 344 336 333 338 331 327 316
111 107 103 99 98 90 78 64 75 70 88 111 114 116 116 111 94 88 102 104 106 108 123 129 126 118 100 85 74 60 46 44 25 12 358 350 346 342 341 339 330 320 322
112 108 106 106 103 102 98 82 61 70 71 73 80 94 90 96 102 94 91 92 93 104 119 107 97 87 78 70 62 59 47 32 14 0 354 350 345 340 336 334 333 330 327
110 110 109 110 111 111 111 110 104 81 69 68 74 86 99 107 105 104 104 105 108 137 114 99 95 89 78 66 53 43 38 34 3 352 352 348 341 336 335 336 335 333 330
106 105 108 108 110 112 114 115 115 115 109 92 78 86 100 106 109 113 124 136 128 131 99 97 95 88 74 56 45 34 23 15 3 351 350 346 340 335 335 334 334 338 329
108 109 109 110 111 112 113 112 111 112 112 114 116 108 109 117 119 131 172 134 105 104 100 96 90 81 67 54 41 23 11 5 2 340 348 344 336 333 335 332 329 331 317
105 111 115 116 115 114 115 117 118 120 120 122 124 128 142 149 138 138 138 109 103 99 95 90 79 67 60 46 30 11 1 2 355 344 349 340 336 333 332 328 327 326 324
115 117 120 119 116 118 120 120 121 123 123 124 121 114 131 141 126 120 112 102 93 89 84 82 85 79 67 45 25 4 354 360 358 350 344 339 336 332 328 326 325 324 325
119 123 121 116 119 120 121 122 123 122 124 124 125 129 144 132 114 110 104 99 94 89 86 75 68 62 44 30 16 0 355 1 359 351 342 336 332 329 328 328 329 328 327
119 120 117 117 117 121 126 122 124 127 127 128 129 132 133 119 113 109 107 103 99 94 88 83 74 65 50 31 17 6 1 4 355 345 334 330 330 328 328 329 327 326 328
123 123 123 125 129 132 128 128 130 129 129 129 128 128 127 124 119 116 115 110 109 105 98 88 73 62 37 10 357 20 31 9 340 331 331 322 320 323 325 324 321 325 324
122 122 123 125 127 128 128 129 128 128 129 131 133 134 131 130 129 130 127 125 128 119 117 118 103 73 28 2 3 30 50 10 329 324 316 310 316 320 323 321 320 320 321
122 123 123 124 126 128 131 132 135 137 139 139 138 136 137 139 140 141 143 146 150 144 159 149 90 18 328 325 44 48 55 301 297 297 300 303 311 320 328 319 318 319 321